GFSNE_prec_kuchsnow_183.txt.gz
Snowfall_Accumulation
0.0 0.0 0.0 0.0 0.0 0.0 0.0 0.1 2.1 3.1 0.0 0.0 0.0 0.0 0.0 0.0 0.0 0.0 0.0 0.0 0.0 0.0 0.0 0.0 0.0 0.0 0.0 0.0 0.0 0.0 0.0 0.0 0.0 0.0 0.0 0.0 0.0 0.0
0.0 0.0 0.0 0.0 0.0 0.0 0.1 0.0 0.2 0.7 1.5 0.0 0.0 0.0 0.0 0.0 0.0 0.0 0.0 0.0 0.0 0.0 0.0 0.0 0.0 0.0 0.0 0.0 0.0 0.0 0.0 0.0 0.0 0.0 0.0 0.0 0.0 0.0
0.0 0.0 0.0 0.0 0.0 0.1 0.0 0.0 0.1 0.3 0.9 0.0 0.0 0.0 0.0 0.0 0.0 0.0 0.0 0.0 0.0 0.0 0.0 0.0 0.0 0.0 0.0 0.0 0.0 0.0 0.0 0.0 0.0 0.0 0.0 0.0 0.0 0.0
0.1 0.0 0.0 0.0 0.0 0.0 0.0 0.1 0.2 0.1 0.4 0.3 0.0 0.0 0.0 0.0 0.0 0.0 0.0 0.0 0.0 0.0 0.0 0.0 0.0 0.0 0.0 0.0 0.0 0.0 0.0 0.0 0.0 0.0 0.0 0.0 0.0 0.0
0.4 0.3 0.1 0.2 0.2 0.2 0.3 0.3 0.2 0.1 0.1 0.2 0.1 0.0 0.0 0.0 0.0 0.0 0.0 0.0 0.0 0.0 0.0 0.0 0.0 0.0 0.0 0.0 0.0 0.0 0.0 0.0 0.0 0.0 0.0 0.0 0.0 0.0
1.6 1.3 0.9 0.6 0.7 1.5 0.3 0.4 0.2 0.3 0.2 0.1 0.0 0.0 0.0 0.0 0.0 0.0 0.0 0.0 0.0 0.0 0.0 0.0 0.0 0.0 0.0 0.0 0.0 0.0 0.0 0.0 0.0 0.0 0.0 0.0 0.0 0.0
3.8 2.9 2.8 2.7 1.4 2.1 2.9 2.1 0.5 0.9 0.8 0.5 0.4 0.1 0.0 0.1 0.0 0.0 0.3 0.0 0.0 0.0 0.0 0.0 0.0 0.0 0.0 0.0 0.0 0.0 0.0 0.0 0.0 0.0 0.0 0.0 0.0 0.0
4.1 4.4 3.5 3.6 2.5 2.9 2.4 2.5 3.2 2.6 5.0 4.2 2.5 1.3 0.5 1.6 1.5 1.6 1.3 3.9 3.2 0.0 0.1 0.6 0.0 0.0 0.0 0.0 0.0 0.0 0.0 0.1 0.2 0.2 0.2 0.2 0.0 0.0
5.1 4.0 3.6 4.3 3.9 2.9 3.3 3.0 2.8 3.0 4.7 7.9 9.1 5.0 4.4 2.6 3.0 5.1 2.0 2.2 2.0 0.0 1.1 1.4 0.1 0.3 0.1 0.0 0.1 0.1 0.0 0.0 0.0 0.0 0.0 0.4 0.6 0.5
5.5 4.8 4.1 3.6 4.1 4.4 4.9 5.9 6.8 6.8 6.6 7.5 6.1 5.3 2.3 2.2 4.2 4.2 3.5 2.6 1.3 0.4 0.5 5.3 1.8 0.4 0.4 0.1 0.0 0.0 0.1 0.2 0.3 0.3 0.3 0.1 0.1 0.5
1.4 3.2 4.0 3.6 5.3 6.1 9.7 11.0 8.5 5.5 6.2 5.4 5.8 4.1 4.6 3.6 3.4 8.3 6.2 8.8 5.6 1.4 0.5 3.8 1.1 2.1 3.0 4.0 3.3 0.3 0.1 0.0 0.2 0.1 1.1 0.9 0.7 0.5
0.2 1.1 3.8 4.7 4.8 5.5 8.6 9.6 11.2 8.2 7.3 5.9 5.7 4.9 4.2 4.0 3.6 5.6 10.0 12.5 7.4 8.1 1.4 4.4 1.4 3.3 8.3 4.1 4.4 4.9 3.4 2.6 0.4 1.0 0.7 0.9 0.6 1.7
2.4 2.6 2.0 3.5 5.4 3.9 4.3 6.8 9.0 5.3 5.3 6.6 6.5 7.6 6.9 5.8 5.5 5.5 6.4 9.9 15.9 10.4 2.5 5.5 3.9 2.1 6.9 4.1 4.4 5.2 6.5 9.6 5.9 4.6 2.8 3.2 1.4 2.7
7.0 6.0 5.6 5.2 4.2 4.1 3.6 6.0 5.1 4.3 6.4 8.0 8.1 8.2 10.8 10.7 7.5 8.2 6.8 7.0 6.5 8.6 4.2 9.4 14.9 4.0 7.7 9.4 5.9 5.1 9.0 10.3 11.8 9.3 7.7 6.9 5.3 4.3
6.3 6.4 5.9 5.3 4.3 5.1 4.5 5.0 5.6 7.9 8.3 8.3 7.1 5.4 5.9 6.5 6.4 7.2 6.7 6.6 6.0 5.9 8.2 7.3 7.0 6.2 10.5 11.0 4.4 5.0 12.3 13.7 10.0 9.7 11.2 11.5 10.9 8.5
6.1 5.4 6.9 6.5 6.3 6.6 7.2 6.4 7.5 7.6 7.4 7.7 6.0 3.9 3.4 4.7 5.9 6.7 10.4 9.2 13.8 12.7 8.9 10.5 13.1 10.6 14.6 10.1 7.2 8.9 7.2 11.5 9.6 10.0 10.2 10.9 10.0 7.5
9.1 9.8 9.2 6.9 6.3 4.1 3.1 2.5 2.6 2.7 4.5 4.4 4.0 3.0 3.2 3.6 6.2 6.1 8.0 8.6 14.6 14.0 13.7 12.3 12.9 15.0 10.7 9.4 11.2 6.7 7.0 6.9 6.8 8.3 10.5 10.7 9.8 10.2
8.7 7.1 5.5 4.6 4.3 4.3 4.7 4.5 2.5 2.0 2.3 2.9 3.3 2.9 4.6 5.7 6.4 5.5 6.1 12.1 13.0 12.6 14.9 13.5 14.8 18.4 16.7 12.3 6.3 6.9 10.8 9.7 7.8 5.8 7.2 10.7 9.8 8.4
8.6 6.9 6.5 7.0 5.4 5.7 4.5 4.4 4.4 3.7 3.0 3.9 3.0 5.0 4.3 4.3 6.2 5.9 7.1 9.5 11.7 9.0 11.2 13.3 17.6 19.4 24.4 22.1 9.6 3.7 8.2 6.0 6.9 7.2 8.0 8.7 12.2 9.5
9.2 9.6 9.1 7.3 6.5 4.9 4.8 4.9 4.0 4.0 3.8 3.1 3.8 3.1 4.6 5.3 4.1 6.6 7.2 10.2 10.2 9.6 8.1 8.7 13.8 14.9 22.6 23.0 20.3 12.1 8.4 8.1 7.8 8.7 9.8 9.2 10.7 10.6
11.0 9.7 11.2 10.4 8.9 8.3 7.6 6.7 7.4 7.3 7.0 5.4 5.4 5.9 6.1 6.3 5.9 3.8 5.9 6.7 9.0 10.1 9.9 10.2 11.0 14.0 14.7 15.4 22.0 19.9 17.9 11.4 10.3 10.3 10.8 13.9 14.3 10.6
20.8 18.9 17.4 17.3 16.6 15.5 14.1 12.5 10.7 10.2 9.7 7.7 7.2 7.4 8.2 7.6 7.8 8.3 7.7 11.5 11.4 11.2 11.6 10.3 10.1 11.3 14.5 16.9 19.6 17.1 19.4 19.1 12.6 12.6 12.0 10.0 13.6 15.5
22.1 20.9 19.2 17.2 15.8 15.7 15.2 15.1 13.8 13.8 12.6 11.3 10.7 9.6 9.5 10.8 9.4 9.6 9.1 8.1 9.4 9.6 9.4 12.2 11.8 12.0 15.1 14.8 16.9 19.5 18.4 19.0 19.4 15.4 18.3 7.2 5.5 5.2

GFSNE_prec_kuchsnow_186.txt.gz
Snowfall_Accumulation
0.0 0.0 0.0 0.0 0.0 0.0 0.1 0.1 2.1 3.2 0.0 0.0 0.0 0.0 0.0 0.0 0.0 0.0 0.0 0.0 0.0 0.0 0.0 0.0 0.0 0.0 0.0 0.0 0.0 0.0 0.0 0.0 0.0 0.0 0.0 0.0 0.0 0.0
0.0 0.0 0.0 0.0 0.0 0.0 0.1 0.0 0.2 0.8 1.7 0.0 0.0 0.0 0.0 0.0 0.0 0.0 0.0 0.0 0.0 0.0 0.0 0.0 0.0 0.0 0.0 0.0 0.0 0.0 0.0 0.0 0.0 0.0 0.0 0.0 0.0 0.0
0.0 0.0 0.0 0.0 0.0 0.1 0.0 0.0 0.1 0.3 1.1 0.0 0.0 0.0 0.0 0.0 0.0 0.0 0.0 0.0 0.0 0.0 0.0 0.0 0.0 0.0 0.0 0.0 0.0 0.0 0.0 0.0 0.0 0.0 0.0 0.0 0.0 0.0
0.1 0.0 0.0 0.0 0.0 0.0 0.0 0.1 0.3 0.1 0.4 0.3 0.0 0.0 0.0 0.0 0.0 0.0 0.0 0.0 0.0 0.0 0.0 0.0 0.0 0.0 0.0 0.0 0.0 0.0 0.0 0.0 0.0 0.0 0.0 0.0 0.0 0.0
0.4 0.3 0.1 0.2 0.2 0.2 0.3 0.3 0.2 0.1 0.1 0.2 0.1 0.0 0.0 0.0 0.0 0.0 0.0 0.0 0.0 0.0 0.0 0.0 0.0 0.0 0.0 0.0 0.0 0.0 0.0 0.0 0.0 0.0 0.0 0.0 0.0 0.0
1.6 1.3 0.9 0.6 0.7 1.5 0.3 0.4 0.2 0.3 0.2 0.1 0.0 0.0 0.0 0.0 0.0 0.0 0.0 0.0 0.0 0.0 0.0 0.0 0.0 0.0 0.0 0.0 0.0 0.0 0.0 0.0 0.0 0.0 0.0 0.0 0.0 0.0
3.8 2.9 2.8 2.7 1.4 2.1 2.9 2.1 0.7 1.1 0.8 0.5 0.4 0.1 0.0 0.1 0.0 0.0 0.3 0.0 0.0 0.0 0.0 0.0 0.0 0.0 0.0 0.0 0.0 0.0 0.0 0.0 0.0 0.0 0.0 0.0 0.0 0.0
4.1 4.4 3.5 3.6 2.5 2.9 2.4 2.6 3.2 2.6 5.0 4.2 2.5 1.4 0.5 1.6 1.5 1.6 1.3 3.9 3.3 0.0 0.1 0.6 0.0 0.0 0.0 0.0 0.0 0.0 0.0 0.1 0.2 0.2 0.2 0.2 0.0 0.0
5.1 4.0 3.6 4.3 3.9 2.9 3.3 3.0 2.8 3.0 4.7 7.9 9.3 5.2 4.4 2.6 3.2 5.3 2.0 2.3 2.1 0.0 1.1 1.4 0.1 0.3 0.1 0.0 0.1 0.1 0.0 0.0 0.0 0.0 0.0 0.4 0.6 0.5
5.5 4.8 4.1 3.6 4.1 4.4 4.9 5.9 6.8 6.8 6.6 7.6 6.1 5.3 2.3 2.2 4.4 4.5 3.7 2.6 1.3 0.4 0.5 5.3 1.8 0.4 0.4 0.1 0.0 0.0 0.1 0.2 0.3 0.3 0.3 0.1 0.1 0.5
1.4 3.2 4.0 3.6 5.3 6.1 9.7 11.0 8.5 5.5 6.2 5.4 5.8 4.1 4.6 3.6 3.4 8.4 6.2 9.0 5.6 1.4 0.5 3.8 1.1 2.1 3.0 4.0 3.3 0.3 0.1 0.0 0.2 0.1 1.1 0.9 0.7 0.5
0.2 1.1 3.8 4.7 4.8 5.5 8.6 9.6 11.2 8.2 7.3 5.9 5.7 4.9 4.2 4.0 3.6 5.6 10.3 13.0 7.6 8.1 1.4 4.4 1.4 3.3 8.6 4.1 4.4 4.9 3.4 2.6 0.4 1.0 0.7 0.9 0.6 1.7
2.4 2.6 2.0 3.5 5.4 3.9 4.3 6.8 9.0 5.3 5.3 6.6 6.5 7.6 6.9 5.8 5.5 5.5 6.4 10.4 16.8 11.0 2.5 5.9 4.6 2.1 7.3 4.3 4.4 5.2 6.5 9.6 5.9 4.6 2.8 3.2 1.4 2.7
7.0 6.0 5.6 5.2 4.2 4.1 3.6 6.0 5.1 4.3 6.4 8.0 8.1 8.2 10.8 10.7 7.5 8.2 6.8 7.0 6.5 8.6 4.2 9.9 16.3 4.5 8.3 9.8 5.9 5.1 9.0 10.3 11.8 9.3 7.7 6.9 5.3 4.3
6.3 6.4 5.9 5.3 4.3 5.1 4.5 5.0 5.6 7.9 8.3 8.3 7.1 5.4 5.9 6.5 6.4 7.2 6.7 6.6 6.0 5.9 8.3 7.8 7.9 6.9 11.1 11.5 4.7 5.1 12.3 13.7 10.0 9.7 11.2 11.5 10.9 8.5
6.1 5.4 6.9 6.5 6.3 6.6 7.2 6.4 7.5 7.6 7.4 7.7 6.0 3.9 3.4 4.7 5.9 6.7 10.4 9.2 13.8 12.7 8.9 10.8 13.9 11.6 15.5 10.3 7.4 9.1 7.2 11.6 9.6 10.0 10.2 10.9 10.0 7.5
9.1 9.8 9.2 6.9 6.3 4.1 3.1 2.5 2.6 2.7 4.5 4.4 4.0 3.0 3.2 3.6 6.2 6.1 8.0 8.6 14.7 14.0 13.8 12.3 12.9 15.3 11.1 9.7 11.5 6.7 7.0 7.0 6.8 8.3 10.6 10.8 9.8 10.2
8.7 7.1 5.5 4.6 4.3 4.3 4.7 4.5 2.5 2.0 2.3 2.9 3.3 2.9 4.6 5.7 6.4 5.5 6.1 12.1 13.3 12.8 15.3 13.8 15.0 18.5 16.7 12.3 6.3 7.1 11.0 9.9 7.8 5.8 7.2 10.7 9.8 8.4
8.6 6.9 6.5 7.0 5.4 5.7 4.5 4.4 4.4 3.7 3.0 3.9 3.0 5.0 4.3 4.3 6.2 5.9 7.1 9.5 11.7 9.0 11.2 13.7 18.4 20.2 25.1 22.1 9.6 3.7 8.7 6.2 6.9 7.3 8.0 8.7 12.2 9.5
9.2 9.6 9.1 7.3 6.5 4.9 4.8 4.9 4.0 4.0 3.8 3.1 3.8 3.1 4.6 5.3 4.1 6.6 7.2 10.3 10.2 9.6 8.1 8.7 14.4 16.1 24.1 24.1 21.1 12.1 8.4 8.7 8.3 9.0 9.9 9.2 10.9 10.6
11.0 9.7 11.2 10.4 8.9 8.3 7.6 6.7 7.4 7.3 7.0 5.4 5.4 5.9 6.1 6.3 5.9 3.8 5.9 6.7 9.0 10.1 10.2 10.3 11.3 14.8 16.0 16.2 22.8 19.9 17.9 11.4 10.3 10.7 11.0 13.9 14.7 10.8
20.8 18.9 17.4 17.3 16.6 15.5 14.1 12.5 10.7 10.2 9.7 7.7 7.2 7.4 8.2 7.6 7.8 8.3 7.7 11.6 11.4 11.2 12.0 10.3 10.1 11.8 15.2 18.0 20.4 17.6 19.7 19.1 12.6 12.8 12.3 10.4 13.9 15.7
22.2 21.0 19.2 17.2 15.8 15.7 15.2 15.1 13.8 13.8 12.6 11.3 10.7 9.6 9.5 10.8 9.4 9.6 9.1 8.1 9.4 9.6 9.4 12.6 11.9 12.0 15.7 16.1 18.3 20.6 19.1 19.5 19.8 15.7 18.5 7.3 5.7 5.4

GFSNE_prec_kuchsnow_192.txt.gz
Snowfall_Accumulation
0.0 0.0 0.0 0.0 0.0 0.0 0.1 0.1 2.1 3.2 0.0 0.0 0.0 0.0 0.0 0.0 0.0 0.0 0.0 0.0 0.0 0.0 0.0 0.0 0.0 0.0 0.0 0.0 0.0 0.0 0.0 0.0 0.0 0.0 0.0 0.0 0.0 0.0
0.0 0.0 0.0 0.0 0.0 0.0 0.1 0.0 0.2 0.8 1.7 0.0 0.0 0.0 0.0 0.0 0.0 0.0 0.0 0.0 0.0 0.0 0.0 0.0 0.0 0.0 0.0 0.0 0.0 0.0 0.0 0.0 0.0 0.0 0.0 0.0 0.0 0.0
0.0 0.0 0.0 0.0 0.0 0.1 0.0 0.0 0.1 0.3 1.1 0.0 0.0 0.0 0.0 0.0 0.0 0.0 0.0 0.0 0.0 0.0 0.0 0.0 0.0 0.0 0.0 0.0 0.0 0.0 0.0 0.0 0.0 0.0 0.0 0.0 0.0 0.0
0.1 0.0 0.0 0.0 0.0 0.0 0.0 0.1 0.3 0.1 0.4 0.3 0.0 0.0 0.0 0.0 0.0 0.0 0.0 0.0 0.0 0.0 0.0 0.0 0.0 0.0 0.0 0.0 0.0 0.0 0.0 0.0 0.0 0.0 0.0 0.0 0.0 0.0
0.4 0.3 0.1 0.2 0.2 0.2 0.3 0.3 0.2 0.1 0.1 0.2 0.1 0.0 0.0 0.0 0.0 0.0 0.0 0.0 0.0 0.0 0.0 0.0 0.0 0.0 0.0 0.0 0.0 0.0 0.0 0.0 0.0 0.0 0.0 0.0 0.0 0.0
1.6 1.3 0.9 0.6 0.7 1.5 0.3 0.4 0.2 0.3 0.2 0.1 0.0 0.0 0.0 0.0 0.0 0.0 0.0 0.0 0.0 0.0 0.0 0.0 0.0 0.0 0.0 0.0 0.0 0.0 0.0 0.0 0.0 0.0 0.0 0.0 0.0 0.0
3.8 2.9 2.8 2.7 1.4 2.1 2.9 2.1 0.7 1.1 0.8 0.5 0.4 0.1 0.0 0.1 0.0 0.0 0.3 0.0 0.0 0.0 0.0 0.0 0.0 0.0 0.0 0.0 0.0 0.0 0.0 0.0 0.0 0.0 0.0 0.0 0.0 0.0
4.1 4.4 3.5 3.6 2.5 2.9 2.4 2.6 3.2 2.6 5.0 4.2 2.5 1.4 0.5 1.6 1.5 1.6 1.3 3.9 3.3 0.0 0.1 0.6 0.0 0.0 0.0 0.0 0.0 0.0 0.0 0.1 0.2 0.2 0.2 0.2 0.0 0.0
5.1 4.0 3.6 4.3 3.9 2.9 3.3 3.0 2.8 3.0 4.7 7.9 9.3 5.2 4.4 2.6 3.2 5.4 2.0 2.3 2.1 0.0 1.1 1.4 0.1 0.3 0.1 0.0 0.1 0.1 0.0 0.0 0.0 0.0 0.0 0.4 0.6 0.5
5.5 4.8 4.1 3.6 4.1 4.4 4.9 5.9 6.8 6.8 6.6 7.6 6.2 5.3 2.3 2.2 4.4 4.5 3.8 2.6 1.3 0.4 0.5 5.4 1.8 0.4 0.4 0.1 0.0 0.0 0.1 0.2 0.3 0.3 0.3 0.1 0.1 0.5
1.4 3.2 4.0 3.6 5.3 6.1 9.7 11.0 8.5 5.5 6.2 5.4 5.8 4.1 4.6 3.6 3.4 8.4 6.2 9.0 5.6 1.4 0.5 3.9 1.1 2.1 3.0 4.0 3.3 0.3 0.1 0.0 0.2 0.1 1.1 0.9 0.7 0.5
0.2 1.1 3.8 4.7 4.8 5.5 8.6 9.6 11.2 8.2 7.4 5.9 5.7 4.9 4.2 4.0 3.6 5.6 10.4 13.4 7.7 8.1 1.4 4.4 1.4 3.4 9.1 4.1 4.4 4.9 3.4 2.6 0.4 1.0 0.7 0.9 0.6 1.7
2.4 2.6 2.0 3.5 5.4 3.9 4.3 6.8 9.0 5.3 5.3 6.6 6.5 7.6 6.9 5.8 5.5 5.5 6.4 10.7 17.3 11.2 2.5 6.3 5.3 2.2 7.8 4.5 4.4 5.2 6.5 9.6 5.9 4.6 2.8 3.2 1.4 2.7
7.0 6.0 5.6 5.2 4.2 4.1 3.6 6.0 5.1 4.3 6.4 8.0 8.1 8.2 10.8 10.7 7.5 8.2 6.8 7.0 6.5 9.0 4.2 10.2 17.8 5.0 9.3 10.4 5.9 5.1 9.0 10.3 11.8 9.3 7.7 6.9 5.3 4.3
6.3 6.4 5.9 5.3 4.3 5.1 4.5 5.0 5.6 7.9 8.3 8.3 7.1 5.4 5.9 6.5 6.4 7.2 6.7 6.6 6.0 5.9 8.3 7.8 9.0 7.8 12.0 12.3 4.8 5.2 12.3 13.7 10.0 9.7 11.3 11.6 11.0 8.5
6.1 5.4 6.9 6.5 6.3 6.6 7.2 6.4 7.5 7.6 7.4 7.7 6.0 3.9 3.4 4.7 5.9 6.7 10.4 9.2 13.8 12.7 8.9 10.8 14.6 12.9 16.7 10.7 7.7 9.4 7.3 11.8 9.6 10.1 10.3 11.0 10.0 7.5
9.1 9.8 9.2 6.9 6.3 4.1 3.1 2.5 2.6 2.7 4.5 4.4 4.0 3.0 3.2 3.6 6.2 6.1 8.0 8.6 14.7 14.0 13.8 12.3 12.9 15.5 11.6 10.4 12.3 6.9 7.1 7.3 7.0 8.7 11.2 11.2 9.8 10.3
8.7 7.1 5.5 4.6 4.4 4.3 4.7 4.5 2.5 2.0 2.3 2.9 3.3 2.9 4.6 5.7 6.4 5.5 6.1 12.1 13.3 12.8 15.3 13.8 15.1 18.8 16.7 12.3 6.3 7.3 11.2 10.3 7.9 6.1 7.6 11.3 10.0 8.4
8.7 6.9 6.6 7.0 5.5 5.7 4.5 4.4 4.4 3.7 3.0 3.9 3.0 5.0 4.3 4.3 6.2 5.9 7.1 9.5 11.7 9.0 11.2 13.9 19.1 21.1 26.1 22.3 9.6 3.8 9.7 6.7 7.1 7.5 8.2 9.1 12.5 9.5
9.2 9.6 9.2 7.4 6.6 4.9 4.8 4.9 4.0 4.0 3.8 3.1 3.8 3.1 4.6 5.3 4.1 6.6 7.2 10.4 10.3 9.6 8.1 8.7 14.4 17.3 25.8 25.5 22.1 12.1 8.4 10.5 9.4 9.6 10.1 9.4 11.0 10.6
11.0 9.8 11.3 10.5 9.0 8.3 7.7 6.8 7.4 7.4 7.0 5.4 5.4 5.9 6.1 6.3 6.0 3.8 5.9 6.8 9.0 10.1 10.2 10.3 11.3 14.8 17.0 17.4 23.6 19.9 17.9 11.4 11.5 12.4 11.8 14.6 15.0 10.9
20.9 19.0 17.5 17.5 16.7 15.6 14.2 12.6 10.7 10.2 9.7 7.7 7.2 7.4 8.3 7.7 7.9 8.3 7.7 11.7 11.5 11.2 12.1 10.3 10.1 12.0 15.7 19.3 21.2 17.7 19.7 19.1 12.6 12.9 12.6 10.9 14.5 16.2
22.3 21.1 19.3 17.3 15.9 15.8 15.2 15.2 13.8 13.8 12.6 11.3 10.7 9.6 9.6 10.8 9.4 9.7 9.2 8.2 9.4 9.7 9.4 12.7 12.0 12.1 15.8 17.0 19.5 21.6 19.7 19.6 20.0 15.9 18.5 7.3 5.7 5.4

GFSNE_prec_kuchsnow_195.txt.gz
Snowfall_Accumulation
0.0 0.0 0.0 0.0 0.0 0.0 0.1 0.1 2.1 3.2 0.0 0.0 0.0 0.0 0.0 0.0 0.0 0.0 0.0 0.0 0.0 0.0 0.0 0.0 0.0 0.0 0.0 0.0 0.0 0.0 0.0 0.0 0.0 0.0 0.0 0.0 0.0 0.0
0.0 0.0 0.0 0.0 0.0 0.0 0.1 0.0 0.2 0.8 1.7 0.0 0.0 0.0 0.0 0.0 0.0 0.0 0.0 0.0 0.0 0.0 0.0 0.0 0.0 0.0 0.0 0.0 0.0 0.0 0.0 0.0 0.0 0.0 0.0 0.0 0.0 0.0
0.0 0.0 0.0 0.0 0.0 0.1 0.0 0.0 0.1 0.3 1.1 0.0 0.0 0.0 0.0 0.0 0.0 0.0 0.0 0.0 0.0 0.0 0.0 0.0 0.0 0.0 0.0 0.0 0.0 0.0 0.0 0.0 0.0 0.0 0.0 0.0 0.0 0.0
0.1 0.0 0.0 0.0 0.0 0.0 0.0 0.1 0.3 0.1 0.4 0.3 0.0 0.0 0.0 0.0 0.0 0.0 0.0 0.0 0.0 0.0 0.0 0.0 0.0 0.0 0.0 0.0 0.0 0.0 0.0 0.0 0.0 0.0 0.0 0.0 0.0 0.0
0.4 0.3 0.1 0.2 0.2 0.2 0.3 0.3 0.2 0.1 0.1 0.2 0.1 0.0 0.0 0.0 0.0 0.0 0.0 0.0 0.0 0.0 0.0 0.0 0.0 0.0 0.0 0.0 0.0 0.0 0.0 0.0 0.0 0.0 0.0 0.0 0.0 0.0
1.6 1.3 0.9 0.6 0.7 1.5 0.3 0.4 0.2 0.3 0.2 0.1 0.0 0.0 0.0 0.0 0.0 0.0 0.0 0.0 0.0 0.0 0.0 0.0 0.0 0.0 0.0 0.0 0.0 0.0 0.0 0.0 0.0 0.0 0.0 0.0 0.0 0.0
3.8 2.9 2.8 2.7 1.4 2.1 2.9 2.1 0.7 1.1 0.8 0.5 0.4 0.1 0.0 0.1 0.0 0.0 0.3 0.0 0.0 0.0 0.0 0.0 0.0 0.0 0.0 0.0 0.0 0.0 0.0 0.0 0.0 0.0 0.0 0.0 0.0 0.0
4.1 4.4 3.5 3.6 2.5 2.9 2.4 2.6 3.2 2.6 5.0 4.2 2.5 1.4 0.5 1.6 1.5 1.6 1.3 3.9 3.3 0.0 0.1 0.6 0.0 0.0 0.0 0.0 0.0 0.0 0.0 0.1 0.2 0.2 0.2 0.2 0.0 0.0
5.1 4.0 3.6 4.3 3.9 2.9 3.3 3.0 2.8 3.0 4.7 7.9 9.3 5.2 4.4 2.6 3.2 5.4 2.0 2.3 2.1 0.0 1.1 1.4 0.1 0.3 0.1 0.0 0.1 0.1 0.0 0.0 0.0 0.0 0.0 0.4 0.6 0.6
5.5 4.8 4.1 3.6 4.1 4.4 4.9 5.9 6.8 6.8 6.6 7.6 6.2 5.3 2.3 2.2 4.4 4.5 3.8 2.6 1.3 0.4 0.5 5.4 1.8 0.4 0.4 0.1 0.0 0.0 0.1 0.2 0.3 0.3 0.3 0.1 0.1 0.5
1.4 3.2 4.0 3.6 5.3 6.1 9.7 11.0 8.5 5.5 6.2 5.4 5.8 4.1 4.6 3.6 3.4 8.4 6.2 9.0 5.6 1.4 0.5 3.9 1.1 2.1 3.0 4.0 3.3 0.3 0.1 0.0 0.2 0.1 1.1 0.9 0.7 0.5
0.2 1.1 3.8 4.7 4.8 5.5 8.6 9.6 11.2 8.2 7.4 5.9 5.7 4.9 4.2 4.0 3.6 5.6 10.4 13.4 7.7 8.2 1.4 4.4 1.4 3.5 9.2 4.1 4.4 4.9 3.4 2.6 0.4 1.0 0.7 0.9 0.6 1.7
2.4 2.6 2.0 3.5 5.4 3.9 4.3 6.8 9.0 5.3 5.3 6.6 6.5 7.6 6.9 5.8 5.5 5.6 6.4 10.8 17.6 11.4 2.5 6.3 5.5 2.3 8.0 4.6 4.4 5.2 6.5 9.6 5.9 4.6 2.8 3.2 1.4 2.7
7.0 6.0 5.6 5.2 4.2 4.1 3.6 6.0 5.1 4.3 6.4 8.0 8.1 8.2 10.8 10.7 7.5 8.2 6.8 7.0 6.6 9.2 4.2 10.3 18.2 5.3 9.6 10.6 6.0 5.1 9.0 10.3 11.9 9.3 7.7 6.9 5.3 4.3
6.3 6.4 5.9 5.3 4.3 5.1 4.5 5.0 5.6 7.9 8.3 8.3 7.1 5.4 5.9 6.5 6.4 7.2 6.7 6.7 6.0 5.9 8.4 7.9 9.3 8.1 12.4 12.6 5.0 5.3 12.4 13.7 10.0 9.8 11.3 11.6 11.1 8.6
6.1 5.4 6.9 6.5 6.3 6.6 7.2 6.4 7.5 7.6 7.4 7.7 6.0 3.9 3.4 4.7 5.9 6.7 10.5 9.2 13.9 12.8 8.9 10.8 14.7 13.1 17.2 11.1 8.0 9.5 7.3 11.9 9.6 10.2 10.5 11.2 10.1 7.5
9.1 9.8 9.2 6.9 6.3 4.1 3.1 2.5 2.6 2.7 4.5 4.4 4.0 3.0 3.2 3.6 6.2 6.1 8.0 8.7 14.9 14.1 14.0 12.3 12.9 15.6 11.8 10.6 12.7 7.1 7.3 7.5 7.2 8.8 11.5 11.5 9.9 10.3
8.7 7.1 5.5 4.6 4.4 4.3 4.7 4.5 2.5 2.0 2.3 2.9 3.3 2.9 4.6 5.7 6.4 5.5 6.1 12.1 13.4 12.9 15.5 13.9 15.2 19.0 16.7 12.4 6.3 7.4 11.4 10.3 7.9 6.2 7.8 11.8 10.1 8.4
8.7 6.9 6.6 7.1 5.5 5.7 4.5 4.4 4.4 3.7 3.0 3.9 3.0 5.0 4.3 4.3 6.2 6.0 7.1 9.5 11.8 9.0 11.2 14.0 19.2 21.4 26.6 22.5 9.6 3.8 10.4 7.2 7.1 7.7 8.3 9.6 13.0 9.6
9.2 9.6 9.2 7.4 6.7 4.9 4.8 4.9 4.0 4.0 3.8 3.1 3.8 3.1 4.6 5.3 4.1 6.7 7.2 10.4 10.3 9.7 8.1 8.7 14.5 17.4 26.2 25.8 22.3 12.1 8.5 11.4 10.3 10.1 10.3 9.4 11.2 10.6
11.1 9.9 11.3 10.6 9.0 8.4 7.7 6.8 7.5 7.4 7.1 5.5 5.4 6.0 6.2 6.3 6.1 3.8 5.9 6.9 9.0 10.2 10.3 10.4 11.3 14.8 17.1 17.6 23.8 19.9 17.9 11.4 12.3 13.8 12.7 15.1 15.2 11.0
21.0 19.1 17.6 17.5 16.8 15.7 14.3 12.7 10.8 10.3 9.7 7.7 7.2 7.4 8.3 7.8 8.0 8.3 7.8 11.8 11.6 11.3 12.2 10.5 10.2 12.0 15.8 19.6 21.4 17.7 19.7 19.1 12.6 13.2 13.1 11.8 15.7 17.0
22.4 21.2 19.4 17.4 16.0 15.9 15.3 15.3 13.9 13.8 12.6 11.3 10.7 9.7 9.6 10.9 9.4 9.7 9.3 8.2 9.5 9.8 9.5 12.9 12.1 12.2 16.0 17.1 19.7 21.9 19.7 19.6 20.0 16.0 18.5 7.5 6.0 5.6